Regional Weather Roundup
Issued by NWS

Home | Current Version | Previous Version | Graphics & Text | Print | Product List | Glossary On
Versions: 1 2 3 4 5 6 7 8 9 10 11 12 13 14 15 16 17 18 19 20 21 22 23 24 25 26 27 28 29 30 31 32 33 34 35 36 37 38 39 40 41 42 43 44 45 46 47 48 49 50
086
ASUS43 KBIS 202202
RWRND

NORTH DAKOTA REGIONAL WEATHER ROUNDUP
NATIONAL WEATHER SERVICE BISMARCK ND
400 PM CST SAT JAN 20 2018

NOTE: "FAIR" INDICATES FEW OR NO CLOUDS BELOW 12,000 FEET WITH NO
SIGNIFICANT WEATHER AND/OR OBSTRUCTIONS TO VISIBILITY.


NDZ001>003-009>011-017-202300-
NORTHWEST NORTH DAKOTA

CITY           SKY/WX    TMP DP  RH WIND       PRES   REMARKS
WILLISTON      SUNNY     31  21  66 SW8       29.86R
MINOT          SUNNY     37  24  59 SW15      29.80R
MINOT AFB      SUNNY     36  25  64 W14       29.79R
$$

NDZ018>021-031>035-040>046-202300-
SOUTHWEST NORTH DAKOTA

CITY           SKY/WX    TMP DP  RH WIND       PRES   REMARKS
BISMARCK       SUNNY     41  27  57 W14       29.88R
DICKINSON      PTSUNNY   36  24  62 W9        29.86R
GARRISON         N/A     36  27  69 W9        29.84R
HETTINGER ARPT PTSUNNY   35  25  66 W14       29.90R
$$

NDZ004>008-012>016-024-026-027-054-202300-
NORTHEAST NORTH DAKOTA

CITY           SKY/WX    TMP DP  RH WIND       PRES   REMARKS
GRAND FORKS    FAIR      36  29  75 W9        29.83R
GRND FRKS AFB  FAIR      37  28  68 NW7       29.82R
DEVILS LAKE    FAIR      33  26  75 SW7       29.83R
$$

NDZ022-023-025-028>030-036>039-047>053-202300-
SOUTHEAST NORTH DAKOTA

CITY           SKY/WX    TMP DP  RH WIND       PRES   REMARKS
FARGO          FAIR      37  31  78 SW6       29.86R
JAMESTOWN      SUNNY     40  30  67 W12       29.84R
$$





USA.gov is the U.S. government's official web portal to all federal, state and local government web resources and services.